NOAA 16 DEB, 42386

Orbit data source: Space-Track

NOAA 16 DEB, 42386 is space debris in SSO originally from a launch on Thu, 21 Sep 2000 UTC launched from the Air Force Western Test Range (AFWTR). Debris objects in space refer to the collection of defunct objects orbiting the Earth. Examples of debris include non-operational satellites, rocket bodies, and fragments generated from explosions, collisions, or faulty payload assembly.

Loading next visibility...
Identifier
42386, 2000-055SE
Orbit
SSO
Country
Flag of USUS
Related business
Manufacturer
Unknown
Mission
Spacecraft
Bus & Motor
Unknown
Mass
Unknown
Launch date (UTC)
2000-09-21 (26 years ago)
Launch vehicle
Unknown
Launch site
Air Force Western Test Range (AFWTR)
Object type
Payload
Rocket body
Debris
Shape & HBR
Unknown shape, 0.1 m
Radar Cross Section
Medium (>0.1 m² and <1 m²)

Expand to show TLE details & history
Last TLE update: 2 days ago

TLE from 2 days ago
0 NOAA 16 DEB
1 42386U 00055SE  26261.11142095  .00003025  00000-0  10470-2 0  9997
2 42386  98.6872 356.0075 0018858 216.1003 143.8910 14.36352027548684
Epoch: 2026-09-18T02:40Z
TLE epoch observation values (Epoch: 2026-09-18T02:40:26.770Z)
Latitude
-0.00004°
Longitude
-41.14303°
Altitude
784.417 km
Speed
7.456 km/s
True Right ascension
23h 44m 01s
True Declination
0° 00' 00"
Sunlit
Object was in full shadow at epoch
Visualization orbit readout
Latitude
Unknown
Longitude
Unknown
Altitude
Unknown
Speed
Unknown
Apparent Right ascension
Unknown
Apparent Declination
Unknown
Sunlit
N/A
Visualization observer readout
Local Sidereal Time
06:08:05
Azimuth
Unknown
Elevation
Unknown
Doppler factor
Unknown
Orbital elements
Apogee altitude
781.188 km
Perigee altitude
754.237 km
Semi-major axis
7,145.85 km
Eccentricity
0.00189
Inclination
98.6872°
RAAN
356.0075°
Arg. of periapsis
216.1003°
True anomaly
144.01811°
Mean anomaly
143.891°
Eccentric anomaly
143.95458°
Mean motion
3.59304 °/min
Orbital period
100.19 mins
BSTAR
0.001047
Loading maneuver chart data...
Computing Atmospheric mass density...
Loading historical data...
Loading historical data...
Loading historical data...
Loading historical data...
Loading historical data...
Loading historical data...
Loading historical data...

Documentation

Showing up to 5 results
|